Time,TemperatureF,DewpointF,PressureIn,WindDirection,WindDirectionDegrees,WindSpeedMPH,WindSpeedGustMPH,Humidity,HourlyPrecipIn,Conditions,Clouds,dailyrainin,SoftwareType,DateUTC
2013-04-07 01:41:00,52.5,49.0,30.15,WSW,243,0.0,3.0,88,0.00,,,0.00,weatherlink.com 1.10,2013-04-07 08:41:00,
2013-04-07 02:11:00,52.7,50.0,30.15,SSW,201,1.0,2.0,89,0.00,,,0.00,weatherlink.com 1.10,2013-04-07 09:11:00,
2013-04-07 02:26:00,52.8,50.0,30.14,SSW,203,1.0,3.0,89,0.00,,,0.00,weatherlink.com 1.10,2013-04-07 09:26:00,
2013-04-07 03:11:00,52.6,50.0,30.13,SSE,159,0.0,2.0,89,0.00,,,0.00,weatherlink.com 1.10,2013-04-07 10:11:00,
2013-04-07 03:26:00,52.6,50.0,30.13,SSW,198,0.0,4.0,89,0.00,,,0.00,weatherlink.com 1.10,2013-04-07 10:26:00,
2013-04-07 03:41:00,52.6,50.0,30.12,SSE,167,2.0,4.0,90,0.00,,,0.00,weatherlink.com 1.10,2013-04-07 10:41:00,
2013-04-07 03:56:00,52.7,50.0,30.11,SSE,153,2.0,3.0,91,0.00,,,0.00,weatherlink.com 1.10,2013-04-07 10:56:00,
2013-04-07 04:26:00,52.7,51.0,30.11,South,179,1.0,4.0,92,0.00,,,0.00,weatherlink.com 1.10,2013-04-07 11:26:00,
2013-04-07 04:41:00,52.7,51.0,30.11,SSW,207,2.0,4.0,92,0.00,,,0.00,weatherlink.com 1.10,2013-04-07 11:41:00,
2013-04-07 04:56:00,52.9,51.0,30.11,WSW,255,2.0,4.0,93,0.00,,,0.00,weatherlink.com 1.10,2013-04-07 11:56:00,
2013-04-07 05:11:00,52.9,51.0,30.11,SE,146,3.0,6.0,93,0.00,,,0.00,weatherlink.com 1.10,2013-04-07 12:11:00,
2013-04-07 05:26:00,52.8,51.0,30.11,SSW,205,3.0,6.0,93,0.00,,,0.00,weatherlink.com 1.10,2013-04-07 12:26:00,
2013-04-07 05:41:00,52.8,51.0,30.11,SSE,159,7.0,7.0,93,0.00,,,0.00,weatherlink.com 1.10,2013-04-07 12:41:00,
2013-04-07 05:56:00,52.8,51.0,30.10,SSW,208,5.0,6.0,93,0.00,,,0.00,weatherlink.com 1.10,2013-04-07 12:56:00,
2013-04-07 06:26:00,52.9,51.0,30.11,SW,222,1.0,6.0,93,0.00,,,0.00,weatherlink.com 1.10,2013-04-07 13:26:00,
2013-04-07 06:41:00,52.9,51.0,30.11,South,190,2.0,5.0,93,0.00,,,0.00,weatherlink.com 1.10,2013-04-07 13:41:00,
2013-04-07 06:56:00,52.8,51.0,30.11,SSW,205,3.0,5.0,93,0.00,,,0.00,weatherlink.com 1.10,2013-04-07 13:56:00,
2013-04-07 07:11:00,52.9,51.0,30.11,SSW,211,3.0,5.0,93,0.00,,,0.00,weatherlink.com 1.10,2013-04-07 14:11:00,
2013-04-07 07:26:00,52.9,51.0,30.11,WSW,238,1.0,5.0,93,0.00,,,0.00,weatherlink.com 1.10,2013-04-07 14:26:00,
2013-04-07 07:41:00,53.2,51.0,30.11,SSW,210,4.0,6.0,93,0.00,,,0.00,weatherlink.com 1.10,2013-04-07 14:41:00,
2013-04-07 07:56:00,53.3,51.0,30.11,SSW,208,6.0,7.0,93,0.00,,,0.00,weatherlink.com 1.10,2013-04-07 14:56:00,
2013-04-07 08:11:00,53.4,52.0,30.11,SW,232,3.0,9.0,93,0.00,,,0.00,weatherlink.com 1.10,2013-04-07 15:11:00,
2013-04-07 08:26:00,54.0,52.0,30.11,SSW,207,5.0,7.0,92,0.00,,,0.00,weatherlink.com 1.10,2013-04-07 15:26:00,
2013-04-07 08:42:00,54.1,52.0,30.10,SSW,197,5.0,10.0,91,0.00,,,0.00,weatherlink.com 1.10,2013-04-07 15:42:00,
2013-04-07 08:56:00,54.3,52.0,30.10,SSW,193,4.0,9.0,91,0.00,,,0.00,weatherlink.com 1.10,2013-04-07 15:56:00,
2013-04-07 09:11:00,54.7,52.0,30.10,South,176,6.0,9.0,90,0.00,,,0.00,weatherlink.com 1.10,2013-04-07 16:11:00,
2013-04-07 09:27:00,55.1,52.0,30.09,SSE,162,3.0,8.0,90,0.00,,,0.00,weatherlink.com 1.10,2013-04-07 16:27:00,
2013-04-07 09:42:00,55.6,53.0,30.09,WSW,248,7.0,8.0,89,0.00,,,0.00,weatherlink.com 1.10,2013-04-07 16:42:00,
2013-04-07 09:57:00,55.7,52.0,30.10,WSW,252,5.0,10.0,88,0.00,,,0.00,weatherlink.com 1.10,2013-04-07 16:57:00,
2013-04-07 10:12:00,55.9,53.0,30.10,SW,232,7.0,10.0,89,0.00,,,0.00,weatherlink.com 1.10,2013-04-07 17:12:00,
2013-04-07 10:42:00,55.9,53.0,30.10,SW,217,6.0,11.0,91,0.00,,,0.00,weatherlink.com 1.10,2013-04-07 17:42:00,
2013-04-07 10:57:00,55.6,53.0,30.10,SSW,212,7.0,14.0,92,0.00,,,0.00,weatherlink.com 1.10,2013-04-07 17:57:00,
2013-04-07 11:12:00,55.6,53.0,30.10,SW,235,7.0,13.0,91,0.00,,,0.00,weatherlink.com 1.10,2013-04-07 18:12:00,
2013-04-07 11:27:00,55.3,53.0,30.11,SSE,160,5.0,12.0,92,0.00,,,0.00,weatherlink.com 1.10,2013-04-07 18:27:00,
2013-04-07 11:42:00,55.5,54.0,30.09,SE,146,6.0,11.0,94,0.00,,,0.00,weatherlink.com 1.10,2013-04-07 18:42:00,
2013-04-07 11:57:00,56.9,54.0,30.09,SSW,194,4.0,15.0,90,0.00,,,0.00,weatherlink.com 1.10,2013-04-07 18:57:00,
2013-04-07 12:12:00,57.9,54.0,30.08,SSW,197,7.0,12.0,88,0.00,,,0.00,weatherlink.com 1.10,2013-04-07 19:12:00,
2013-04-07 12:27:00,59.3,55.0,30.08,SSW,195,5.0,12.0,86,0.00,,,0.00,weatherlink.com 1.10,2013-04-07 19:27:00,
2013-04-07 12:42:00,59.3,55.0,30.08,SSE,156,10.0,12.0,84,0.00,,,0.00,weatherlink.com 1.10,2013-04-07 19:42:00,
2013-04-07 12:57:00,60.1,55.0,30.06,SSE,162,6.0,12.0,84,0.00,,,0.00,weatherlink.com 1.10,2013-04-07 19:57:00,
2013-04-07 13:12:00,59.9,53.0,30.06,SSW,198,6.0,14.0,79,0.00,,,0.00,weatherlink.com 1.10,2013-04-07 20:12:00,
2013-04-07 13:27:00,59.5,51.0,30.06,South,190,6.0,18.0,74,0.00,,,0.00,weatherlink.com 1.10,2013-04-07 20:27:00,
2013-04-07 13:42:00,60.4,51.0,30.05,South,191,11.0,17.0,70,0.00,,,0.00,weatherlink.com 1.10,2013-04-07 20:42:00,
2013-04-07 13:57:00,61.1,52.0,30.04,South,190,13.0,16.0,71,0.00,,,0.00,weatherlink.com 1.10,2013-04-07 20:57:00,
2013-04-07 14:12:00,60.3,52.0,30.03,WSW,255,12.0,17.0,73,0.00,,,0.00,weatherlink.com 1.10,2013-04-07 21:12:00,
2013-04-07 14:27:00,60.3,52.0,30.02,SSW,195,10.0,19.0,73,0.00,,,0.00,weatherlink.com 1.10,2013-04-07 21:27:00,
2013-04-07 14:42:00,60.3,52.0,30.02,South,184,11.0,17.0,74,0.00,,,0.00,weatherlink.com 1.10,2013-04-07 21:42:00,
2013-04-07 14:57:00,60.2,52.0,30.01,SSE,165,9.0,19.0,73,0.00,,,0.00,weatherlink.com 1.10,2013-04-07 21:57:00,
2013-04-07 15:12:00,60.8,51.0,30.00,WSW,249,12.0,15.0,71,0.00,,,0.00,weatherlink.com 1.10,2013-04-07 22:12:00,
2013-04-07 15:27:00,61.6,52.0,30.01,South,174,5.0,16.0,71,0.00,,,0.00,weatherlink.com 1.10,2013-04-07 22:27:00,
2013-04-07 15:42:00,60.1,51.0,30.00,SSW,200,8.0,17.0,72,0.00,,,0.00,weatherlink.com 1.10,2013-04-07 22:42:00,
2013-04-07 15:57:00,59.5,51.0,30.00,SW,221,5.0,14.0,74,0.00,,,0.00,weatherlink.com 1.10,2013-04-07 22:57:00,
2013-04-07 16:12:00,59.1,50.0,30.00,SW,235,11.0,17.0,73,0.00,,,0.00,weatherlink.com 1.10,2013-04-07 23:12:00,
2013-04-07 16:27:00,59.0,50.0,29.99,SSW,193,8.0,16.0,73,0.00,,,0.00,weatherlink.com 1.10,2013-04-07 23:27:00,
2013-04-07 16:42:00,59.0,50.0,29.98,WSW,248,9.0,14.0,72,0.00,,,0.00,weatherlink.com 1.10,2013-04-07 23:42:00,
2013-04-07 16:57:00,58.5,49.0,29.98,SW,214,11.0,17.0,72,0.00,,,0.00,weatherlink.com 1.10,2013-04-07 23:57:00,
2013-04-07 17:12:00,57.5,49.0,29.98,WSW,239,11.0,17.0,74,0.00,,,0.00,weatherlink.com 1.10,2013-04-08 00:12:00,
2013-04-07 17:27:00,57.6,49.0,29.98,SW,233,14.0,14.0,74,0.00,,,0.00,weatherlink.com 1.10,2013-04-08 00:27:00,
2013-04-07 17:43:00,57.0,49.0,29.97,SSW,201,3.0,15.0,75,0.00,,,0.00,weatherlink.com 1.10,2013-04-08 00:43:00,
2013-04-07 17:58:00,56.4,49.0,29.96,WSW,243,12.0,15.0,77,0.00,,,0.00,weatherlink.com 1.10,2013-04-08 00:58:00,
2013-04-07 18:13:00,56.7,49.0,29.95,West,269,10.0,18.0,76,0.00,,,0.00,weatherlink.com 1.10,2013-04-08 01:13:00,
2013-04-07 18:28:00,56.1,48.0,29.95,SW,233,10.0,16.0,75,0.00,,,0.00,weatherlink.com 1.10,2013-04-08 01:28:00,
2013-04-07 18:43:00,55.0,48.0,29.96,SW,214,18.0,18.0,77,0.00,,,0.00,weatherlink.com 1.10,2013-04-08 01:43:00,
2013-04-07 18:58:00,54.3,47.0,29.95,WSW,243,12.0,16.0,76,0.00,,,0.00,weatherlink.com 1.10,2013-04-08 01:58:00,
2013-04-07 19:13:00,54.2,47.0,29.95,SW,231,11.0,14.0,77,0.00,,,0.00,weatherlink.com 1.10,2013-04-08 02:13:00,
2013-04-07 19:28:00,53.7,47.0,29.95,WSW,249,10.0,14.0,78,0.00,,,0.00,weatherlink.com 1.10,2013-04-08 02:28:00,
2013-04-07 19:43:00,53.3,47.0,29.95,WSW,256,6.0,16.0,80,0.00,,,0.00,weatherlink.com 1.10,2013-04-08 02:43:00,
2013-04-07 19:58:00,53.1,47.0,29.93,SSW,198,7.0,11.0,81,0.00,,,0.00,weatherlink.com 1.10,2013-04-08 02:58:00,
2013-04-07 20:13:00,53.0,47.0,29.92,SW,232,5.0,11.0,81,0.00,,,0.00,weatherlink.com 1.10,2013-04-08 03:13:00,
2013-04-07 20:28:00,53.0,47.0,29.93,SSW,194,6.0,14.0,81,0.00,,,0.00,weatherlink.com 1.10,2013-04-08 03:28:00,
2013-04-07 20:43:00,52.2,48.0,29.93,WSW,245,10.0,14.0,86,0.00,,,0.00,weatherlink.com 1.10,2013-04-08 03:43:00,
2013-04-07 20:58:00,51.6,48.0,29.91,SW,233,6.0,14.0,88,0.00,,,0.00,weatherlink.com 1.10,2013-04-08 03:58:00,
2013-04-07 21:13:00,51.8,49.0,29.91,SW,231,6.0,12.0,89,0.00,,,0.00,weatherlink.com 1.10,2013-04-08 04:13:00,
2013-04-07 21:28:00,51.4,48.0,29.90,West,259,11.0,17.0,89,0.00,,,0.00,weatherlink.com 1.10,2013-04-08 04:28:00,
2013-04-07 21:43:00,51.1,49.0,29.89,SW,236,4.0,11.0,91,0.00,,,0.00,weatherlink.com 1.10,2013-04-08 04:43:00,
2013-04-07 21:58:00,51.1,49.0,29.89,SSW,201,6.0,12.0,93,0.00,,,0.00,weatherlink.com 1.10,2013-04-08 04:58:00,
2013-04-07 22:13:00,51.2,50.0,29.87,SSW,211,7.0,12.0,94,0.00,,,0.00,weatherlink.com 1.10,2013-04-08 05:13:00,
2013-04-07 22:28:00,51.5,50.0,29.86,South,180,6.0,15.0,95,0.00,,,0.00,weatherlink.com 1.10,2013-04-08 05:28:00,
2013-04-07 22:43:00,51.7,51.0,29.84,SW,229,6.0,16.0,96,0.00,,,0.00,weatherlink.com 1.10,2013-04-08 05:43:00,
2013-04-07 23:13:00,52.4,51.0,29.83,NW,308,15.0,23.0,95,0.01,,,0.01,weatherlink.com 1.10,2013-04-08 06:13:00,
2013-04-07 23:43:00,52.0,49.0,29.84,NW,304,6.0,18.0,90,0.03,,,0.03,weatherlink.com 1.10,2013-04-08 06:43:00,